FW5311 Weather Reports


Display with metric or nautical units.
time (UTC)temp
F
wind
direction
speed
MPH
gust
MPH
rain 1hr
in
rain 24hr
in
rain mn
in
humidity
%
barometer
mb
20260502194539 62 171 5.0 15.0 0.00 0.00 0.00 48 1007.7
20260502193039 61 171 10.0 15.0 0.00 0.00 0.00 48 1007.8
20260502191551 60 150 7.0 11.0 0.00 0.00 0.00 49 1007.8
20260502190057 58 146 7.0 15.0 0.00 0.00 0.00 50 1007.9
20260502184551 57 158 12.0 16.0 0.00 0.00 0.00 50 1008.0
20260502183100 58 167 4.0 7.0 0.00 0.00 0.00 51 1008.0
20260502181544 57 200 2.0 9.0 0.00 0.00 0.00 50 1008.3
20260502163049 56 213 2.0 9.0 0.00 0.00 0.00 45 1008.6
20260502161544 56 208 4.0 9.0 0.00 0.00 0.00 46 1008.8
20260502151549 52 138 6.0 13.0 0.00 0.00 0.00 52 1008.8
20260502123039 40 153 8.0 12.0 0.00 0.00 0.00 61 1010.3
20260502121551 39 134 3.0 8.0 0.00 0.00 0.00 62 1010.4
20260502114548 38 130 5.0 11.0 0.00 0.00 0.00 62 1010.9
20260502113044 38 132 7.0 11.0 0.00 0.00 0.00 61 1011.1
20260502111539 38 147 6.0 10.0 0.00 0.00 0.00 62 1011.2
20260502110044 37 134 7.0 10.0 0.00 0.00 0.00 63 1011.4
20260502104542 36 129 6.0 10.0 0.00 0.00 0.00 63 1011.6
20260502103046 37 123 7.0 10.0 0.00 0.00 0.00 62 1011.9
20260502101550 37 112 6.0 11.0 0.00 0.00 0.00 62 1012.1
20260502070043 36 152 2.0 6.0 0.00 0.00 0.00 59 1015.1
20260502064541 37 124 3.0 6.0 0.00 0.00 0.00 58 1015.3
20260502063045 38 132 3.0 6.0 0.00 0.00 0.00 57 1015.5
20260502061543 38 118 4.0 6.0 0.00 0.00 0.00 56 1015.5
20260502060042 38 117 5.0 7.0 0.00 0.00 0.00 55 1015.6
20260502054543 38 124 4.0 6.0 0.00 0.00 0.00 55 1015.7
20260502053059 39 116 3.0 6.0 0.00 0.00 0.00 53 1016.0
20260502051548 39 119 5.0 7.0 0.00 0.00 0.00 53 1016.2
20260502050047 40 122 2.0 4.0 0.00 0.00 0.00 51 1016.3
20260502044541 40 122 2.0 4.0 0.00 0.00 0.00 50 1016.3
20260502043040 39 129 1.0 4.0 0.00 0.00 0.00 51 1016.5
20260502041602 41 111 1.0 3.0 0.00 0.00 0.00 47 1016.4
20260502040045 43 111 1.0 4.0 0.00 0.00 0.00 45 1016.5
20260502034545 43 109 2.0 3.0 0.00 0.00 0.00 45 1016.6
20260502033058 44 109 1.0 3.0 0.00 0.00 0.00 44 1016.5
20260502031539 44 109 2.0 3.0 0.00 0.00 0.00 43 1016.5
20260502030048 46 109 1.0 3.0 0.00 0.00 0.00 42 1016.5
20260502024540 47 101 1.0 3.0 0.00 0.00 0.00 42 1016.4
20260502023051 47 0 1.0 4.0 0.00 0.00 0.00 42 1016.5
20260502021542 49 94 2.0 4.0 0.00 0.00 0.00 40 1016.6
20260502020043 49 105 2.0 4.0 0.00 0.00 0.00 41 1016.5
20260502014542 50 96 2.0 4.0 0.00 0.00 0.00 41 1016.6
20260502013041 51 86 0.0 2.0 0.00 0.00 0.00 40 1016.8
20260502011546 51 0 0.0 3.0 0.00 0.00 0.00 40 1016.8
20260502010043 53 86 1.0 4.0 0.00 0.00 0.00 37 1017.0
20260502004541 54 72 1.0 4.0 0.00 0.00 0.00 36 1017.1
20260502003039 54 35 3.0 4.0 0.00 0.00 0.00 35 1017.0
20260502001542 54 11 2.0 5.0 0.00 0.00 0.00 35 1017.2
20260502000048 54 336 2.0 6.0 0.00 0.00 0.00 34 1017.4
20260501234544 55 325 1.0 7.0 0.00 0.00 0.00 33 1017.6
20260501233045 55 307 1.0 6.0 0.00 0.00 0.00 34 1017.6
20260501231556 55 214 2.0 9.0 0.00 0.00 0.00 34 1017.6
20260501230041 54 44 2.0 10.0 0.00 0.00 0.00 33 1018.0
20260501224544 55 244 3.0 7.0 0.00 0.00 0.00 33 1017.8
20260501223107 55 263 2.0 10.0 0.00 0.00 0.00 34 1017.9
20260501221542 55 355 1.0 5.0 0.00 0.00 0.00 33 1018.1
20260501220045 55 297 4.0 7.0 0.00 0.00 0.00 33 1018.1
20260501214542 54 62 2.0 8.0 0.00 0.00 0.00 33 1018.2
20260501213037 54 284 4.0 10.0 0.00 0.00 0.00 34 1018.4
20260501211539 55 346 1.0 7.0 0.00 0.00 0.00 34 1018.6
20260501210044 54 306 6.0 11.0 0.00 0.00 0.00 34 1018.7
20260501204543 53 335 2.0 11.0 0.00 0.00 0.00 35 1018.8
20260501203041 54 264 8.0 14.0 0.00 0.00 0.00 34 1018.8
20260501201543 52 283 3.0 11.0 0.00 0.00 0.00 36 1018.9
20260501200039 52 238 1.0 5.0 0.00 0.00 0.00 37 1019.1